SCP
-0 0 0 -0 -0 0 0 0 0 -0 0 0 0 0 0 0 0 0 0 0 0 0 0 0 0 0 0 0 0 0 0 0 0 0 0 0 0 0 0 0 2 1 1 1
-0 0 -0 -0 -0 -0 -0 -0 -0 -0 -0 -0 0 -0 0 0 0 0 0 0 0 0 0 0 0 0 0 0 0 0 0 0 0 0 0 0 0 0 0 0 2 1 1 1
-0 -0 0 -0 -0 -0 0 -0 -0 -0 -0 0 0 0 0 0 0 0 0 0 0 0 0 0 0 0 0 0 0 0 0 0 0 0 0 0 0 0 0 1 2 1 1 2
-0 0 -0 -0 -0 0 0 0 0 0 0 0 0 0 0 0 0 0 0 0 0 0 0 0 0 0 0 0 0 0 0 -0 0 0 0 0 0 0 0 1 1 1 1 2
0 0 -0 -0 0 0 0 0 0 0 0 0 0 0 0 0 0 0 0 0 0 0 0 0 0 0 0 0 0 0 0 0 0 0 0 0 0 1 1 1 2 1 2 2
0 0 0 0 0 0 0 0 0 0 0 0 0 0 0 0 0 0 0 0 0 0 0 0 0 0 0 0 0 -0 0 0 0 0 0 0 0 0 1 1 2 2 2 2
0 0 0 0 0 0 0 0 0 0 0 0 0 0 0 0 0 0 -0 -0 0 0 0 0 0 -0 0 0 -0 -0 -0 0 0 0 0 0 0 0 0 0 3 2 2 3
0 0 0 0 0 0 0 0 0 0 0 0 0 0 0 0 -0 -0 -0 0 0 0 0 -0 0 0 0 -0 -0 -0 -0 -0 -0 0 -0 0 -0 -0 -0 1 1 2 2 4
0 0 0 0 0 0 0 0 0 0 0 0 0 -0 0 0 0 -0 0 0 0 -0 -0 0 -0 -0 -0 -0 0 -0 -0 -0 -0 0 -0 -0 -0 -0 0 1 2 3 4 5
-0 0 0 0 -0 0 0 0 0 0 -0 -0 -0 -0 -0 -0 -0 -0 -0 -0 -0 0 -0 -0 -0 -0 -0 0 -0 -0 0 -0 0 -0 -0 0 -0 0 1 2 3 4 3 2
0 0 -0 0 0 0 0 0 -0 -0 -0 -0 -0 -0 -0 -0 -0 -0 -0 -0 0 0 -0 0 0 0 -0 -0 -0 -0 -0 -0 -0 -0 0 -0 0 1 2 2 3 2 2 2
0 0 0 0 0 0 -0 0 0 0 0 0 -0 0 0 -0 0 0 -0 0 0 0 0 0 0 -0 -0 -0 -0 -0 0 0 0 0 0 0 0 0 0 0 0 1 2 2
0 0 0 0 0 0 0 -0 -0 0 0 -0 -0 -0 -0 0 0 -0 -0 -0 -0 0 0 0 0 0 -0 0 0 0 0 0 0 0 0 0 0 0 0 0 0 0 0 0
0 0 0 0 -0 -0 0 0 -0 -0 -0 -0 -0 0 -0 -0 -0 -0 0 0 0 0 0 0 0 0 0 0 0 0 0 0 0 0 0 0 0 0 0 0 0 0 0 0
0 0 0 -0 0 0 0 -0 0 -0 0 0 0 -0 -0 -0 -0 -0 -0 0 0 0 0 0 0 0 0 0 0 0 0 0 0 0 0 0 0 0 0 0 0 0 0 0
0 0 0 0 0 -0 -0 -0 0 0 -0 0 -0 -0 -0 -0 -0 -0 -0 -0 0 0 0 0 0 0 0 0 0 0 0 0 0 0 0 0 0 0 0 0 0 0 0 0
0 -0 -0 -0 0 -0 -0 0 0 0 -0 0 -0 -0 -0 -0 -0 -0 -0 -0 -0 -0 0 0 0 0 0 0 0 0 0 0 0 0 0 0 0 0 0 0 0 0 0 0
0 0 0 -0 0 0 -0 0 0 0 -0 -0 -0 -0 -0 -0 0 0 0 0 0 -0 -0 -0 -0 0 0 0 0 0 0 0 0 0 0 0 0 0 0 0 0 0 0 0
0 0 -0 -0 0 0 0 0 0 0 -0 -0 -0 -0 -0 -0 -0 0 -0 -0 0 0 0 0 0 0 -0 -0 0 0 0 0 0 0 0 0 0 0 0 0 0 0 0 0
0 0 -0 0 -0 -0 -0 -0 0 0 -0 -0 -0 -0 -0 -0 -0 0 0 0 0 0 0 0 0 0 0 0 0 0 0 0 0 0 0 0 0 0 0 0 0 0 0 0
0 0 -0 0 -0 -0 0 -0 0 -0 -0 -0 -0 -0 -0 0 0 0 0 0 0 0 0 0 0 0 0 0 0 0 0 0 0 0 0 0 0 0 0 0 0 0 0 0
0 0 -0 -0 0 0 0 0 0 -0 -0 -0 -0 0 0 0 0 0 0 0 0 0 0 0 0 0 0 0 0 0 0 0 0 0 0 0 0 0 0 0 0 0 0 0
0 -0 -0 -0 0 -0 0 0 0 -0 -0 -0 -0 -0 -0 0 0 0 0 0 0 0 0 0 0 0 0 0 0 0 0 0 0 0 0 0 0 0 0 0 0 0 0 0
-0 -0 -0 -0 -0 -0 0 0 0 -0 -0 0 -0 -0 -0 0 0 0 0 0 0 0 0 0 0 0 0 0 0 0 0 0 0 0 0 0 0 0 0 0 0 0 0 0
-0 -0 -0 -0 -0 -0 0 0 0 0 -0 0 -0 -0 0 0 0 0 0 0 0 0 0 0 0 0 0 0 0 0 0 0 0 0 0 0 0 0 0 0 0 0 0 0
0 -0 -0 -0 -0 -0 -0 -0 0 0 -0 -0 -0 -0 0 0 0 0 0 0 0 0 0 0 0 0 0 0 0 0 0 0 0 0 0 0 0 0 0 0 0 0 0 0
0 0 -0 -0 -0 -0 -0 -0 -0 0 0 0 -0 -0 0 -0 0 0 0 0 0 0 0 0 0 0 0 0 0 0 0 0 0 0 0 0 0 0 0 0 0 0 0 0
Wind_Speed_500mb
45 49 49 51 52 47 46 44 39 40 49 39 48 45 39 50 53 40 31 38 42 41 45 45 47 49 51 50 50 51 57 59 57 59 62 67 71 66 59 64 55 63 66 69
48 47 49 49 52 46 49 48 47 52 56 49 66 65 54 55 49 34 37 40 40 46 52 57 55 54 57 58 61 62 63 69 70 64 64 69 73 71 64 63 58 64 71 74
34 38 33 29 42 43 41 41 42 43 47 45 38 42 40 16 23 43 34 47 54 55 57 60 59 57 57 62 66 68 74 78 72 66 68 69 68 70 72 65 61 71 74 75
24 29 27 29 24 22 29 31 32 27 33 31 22 37 24 28 35 47 48 50 57 55 58 60 65 67 65 68 71 74 81 80 75 71 73 72 69 72 72 65 67 74 79 79
11 18 35 48 23 14 17 25 31 31 16 19 29 33 40 38 44 47 48 56 58 66 71 71 73 78 73 75 78 81 86 84 88 75 70 73 69 67 69 64 72 80 80 80
13 12 10 17 12 15 25 28 29 36 32 36 46 31 33 60 67 70 67 68 67 73 74 76 82 74 71 78 77 83 83 75 79 73 73 71 65 63 63 72 74 79 83 80
22 17 19 21 16 22 21 19 46 46 52 53 33 38 63 67 70 73 76 77 73 72 76 78 76 75 72 72 81 82 79 85 80 75 69 67 63 69 65 70 75 81 81 77
10 10 12 20 30 18 28 55 56 57 48 54 59 67 71 71 75 80 82 80 78 81 81 77 67 60 69 79 79 75 68 72 70 68 66 64 71 76 74 63 84 80 76 72
11 15 43 38 38 53 52 55 56 53 60 62 67 74 77 81 86 90 91 83 82 83 85 82 73 71 77 72 70 66 69 71 80 81 78 91 76 75 73 77 78 74 79 83
22 12 31 42 62 36 52 56 58 58 66 72 76 78 86 81 89 90 86 82 76 76 68 67 66 58 65 70 67 64 74 77 78 80 63 65 88 77 75 78 89 79 85 77
31 32 61 20 54 61 63 72 75 66 72 74 79 79 73 83 73 71 76 70 64 62 61 58 58 56 56 60 56 62 67 73 71 103 126 99 91 77 88 87 87 72 68 79
10 50 42 49 68 84 80 72 77 78 81 76 75 79 81 71 64 66 64 59 58 55 56 60 53 51 52 52 54 60 66 60 66 51 57 100 91 82 77 69 65 64 71 75
16 49 68 73 61 65 73 84 81 72 72 77 61 60 55 59 60 62 63 63 63 59 59 57 54 45 42 41 43 45 48 50 39 16 46 66 74 78 75 66 70 64 72 59
42 42 47 56 70 75 73 71 74 71 51 55 55 50 48 54 57 57 61 62 62 57 54 51 48 44 37 33 36 35 40 31 8 16 35 58 65 73 78 84 75 63 54 51
37 55 58 67 66 77 71 80 66 65 65 63 52 50 48 51 57 61 59 57 55 60 54 44 42 39 30 28 31 33 26 18 21 46 52 69 76 67 69 66 70 73 57 51
60 57 54 59 71 73 83 76 67 68 66 60 57 51 47 48 51 56 52 46 48 48 42 39 34 24 22 20 28 25 20 15 55 57 54 68 65 63 64 57 58 60 64 61
50 53 62 64 67 68 80 71 65 64 64 57 54 52 48 49 49 46 49 41 37 34 28 30 33 29 27 17 23 22 20 38 52 57 53 67 63 59 55 58 52 45 63 56
42 55 56 62 65 69 87 74 67 65 58 56 50 48 45 45 47 46 45 33 23 25 26 33 41 42 27 25 44 32 31 39 53 54 57 59 55 51 55 56 50 53 53 57
42 53 55 59 56 69 75 73 69 68 58 52 50 48 41 42 42 40 37 29 24 37 39 47 51 53 60 68 57 39 44 39 42 47 49 53 59 54 56 61 51 55 51 44
40 46 49 56 55 71 72 73 72 72 68 58 59 59 51 47 42 39 34 33 31 33 21 18 34 38 50 69 54 51 53 49 50 47 51 57 52 55 58 53 60 57 51 51
38 42 46 52 56 57 74 76 78 75 83 70 68 61 54 55 42 38 42 39 33 29 40 45 40 52 48 54 59 53 51 49 51 53 52 56 61 64 58 53 61 63 57 48
37 41 46 51 56 57 62 66 82 74 78 80 76 66 66 66 55 34 36 41 45 42 40 39 46 53 52 56 53 52 52 53 50 58 57 65 70 70 62 70 73 65 52 41
36 38 41 49 51 54 57 63 69 81 68 86 80 75 74 68 66 62 56 48 43 38 33 34 37 44 40 52 52 46 47 53 58 60 60 62 63 62 66 75 68 59 49 45
40 39 37 42 45 51 62 67 61 81 76 80 91 77 71 76 70 59 43 36 32 33 34 31 30 48 58 55 48 56 55 53 55 53 54 58 62 63 68 70 67 58 48 49
42 40 34 42 44 46 53 60 56 69 81 76 86 85 72 68 68 60 47 36 30 33 33 26 24 20 36 43 50 53 49 50 52 55 60 61 63 67 72 65 61 56 50 50
45 49 38 35 37 42 52 53 59 63 76 80 73 84 78 69 65 61 53 45 34 33 36 32 31 35 39 46 45 44 42 44 49 54 60 62 64 72 66 63 58 54 56 54
38 47 47 45 38 41 49 54 55 61 61 74 64 70 74 68 63 61 60 57 48 34 39 38 34 36 42 43 44 44 46 47 49 53 60 67 67 64 58 56 56 57 57 53
Wind_Direction_500mb
276 273 273 270 265 253 241 259 261 266 280 266 269 279 283 284 280 275 276 273 267 265 273 279 281 282 278 279 283 285 284 288 281 276 272 272 270 265 266 266 253 249 234 231
279 281 279 274 270 277 277 276 271 263 255 265 267 271 279 296 270 265 262 268 276 285 287 286 281 277 276 279 284 286 284 285 284 275 269 266 264 265 265 265 250 243 231 227
279 285 284 280 260 264 273 270 265 255 260 264 273 269 275 299 281 282 296 291 284 283 283 283 284 281 276 278 281 281 282 287 281 272 270 262 257 259 262 259 246 237 228 222
279 299 278 273 304 286 283 289 277 260 294 288 323 332 336 311 294 296 293 294 297 296 291 290 285 282 280 279 280 281 284 282 275 274 270 262 254 252 255 255 241 228 222 216
250 250 277 294 315 348 329 297 299 299 333 298 322 306 275 276 281 295 296 295 297 290 284 284 283 282 281 280 280 281 283 278 275 278 260 261 253 251 248 249 231 221 215 205
231 262 277 5 310 344 315 277 12 342 329 317 314 297 293 314 311 301 296 293 291 287 285 284 278 281 282 282 282 281 280 276 276 267 266 263 253 256 248 240 224 217 205 197
232 246 274 7 337 328 274 332 326 321 313 318 312 297 301 298 293 288 284 284 289 285 280 279 284 285 281 281 283 282 280 282 280 271 267 265 256 257 242 226 220 206 196 189
250 243 268 14 337 329 318 308 311 305 309 298 294 294 292 292 293 293 292 291 289 286 285 286 285 288 287 286 284 282 277 272 270 269 271 265 269 247 230 230 208 192 186 183
290 292 306 331 321 317 306 299 300 301 298 293 292 298 301 301 300 297 296 291 290 288 288 287 286 286 285 281 282 278 277 274 272 272 272 268 248 228 240 198 191 179 169 171
310 302 324 318 312 314 311 302 297 296 293 302 304 299 299 300 300 295 291 289 288 286 284 286 284 278 278 280 281 278 280 282 279 283 259 230 224 238 201 182 175 168 174 167
296 297 336 312 314 306 309 311 300 300 301 304 302 300 298 301 290 291 288 285 285 284 281 280 280 279 278 278 280 281 279 279 276 258 231 251 234 182 170 177 172 165 170 168
280 303 299 291 305 306 307 308 304 307 307 303 305 300 297 291 288 291 292 289 286 283 282 281 280 280 281 283 274 280 273 289 314 113 151 146 153 154 161 161 164 169 169 161
283 291 289 294 306 314 318 318 316 312 307 307 302 299 294 292 291 291 292 290 287 285 283 282 280 278 278 273 278 280 297 305 336 103 132 142 146 147 147 143 155 155 152 153
311 314 313 313 315 324 323 319 317 318 312 310 306 304 298 297 295 294 291 290 289 286 281 279 278 276 275 268 270 279 294 302 311 164 146 141 145 143 139 136 136 140 148 157
320 317 304 310 332 327 324 327 323 327 326 325 320 314 309 303 299 297 298 297 292 287 283 277 274 271 267 267 265 270 269 262 159 150 143 142 135 131 130 134 145 149 151 159
313 313 320 340 331 331 337 335 331 329 330 326 324 319 312 304 303 300 300 296 291 287 285 281 274 272 284 263 254 244 228 196 157 144 141 140 134 133 133 132 139 146 154 157
321 327 332 344 345 338 339 338 336 334 330 329 328 327 321 314 309 307 309 305 293 287 280 273 276 284 278 250 168 180 176 145 153 158 144 140 140 140 139 140 142 145 154 156
324 324 342 349 344 345 341 340 342 341 340 338 336 334 329 326 318 316 316 313 302 292 284 274 271 269 244 190 172 172 167 148 158 148 145 141 145 144 140 139 139 141 145 143
335 342 345 351 351 353 348 347 351 351 348 352 351 345 343 340 335 333 329 324 311 293 293 282 273 257 234 215 204 197 171 170 161 150 150 149 142 138 136 136 138 137 141 144
342 346 346 351 355 354 353 357 359 360 6 8 8 2 -0 5 355 341 347 338 319 305 312 52 115 126 149 156 166 167 168 170 153 148 149 145 139 139 135 138 141 142 141 149
341 342 346 351 355 352 359 3 1 359 8 13 16 9 7 14 1 355 357 4 7 19 72 96 114 137 144 153 154 150 152 153 147 146 141 142 142 141 139 144 142 148 148 156
341 342 339 348 358 354 354 354 5 4 8 17 18 15 19 19 17 22 23 5 20 53 81 108 120 135 151 149 146 143 143 141 140 155 154 152 150 151 153 152 156 157 156 151
338 345 346 346 357 357 359 0 358 8 1 16 19 19 22 21 19 17 16 30 42 83 95 103 115 129 138 133 130 131 141 141 141 145 147 153 162 167 163 162 162 162 163 158
348 350 350 353 358 359 2 359 357 6 9 10 17 23 26 21 27 21 27 31 51 83 93 89 112 124 132 128 131 132 138 145 152 160 165 164 162 163 164 166 162 162 162 160
358 354 356 357 2 359 360 0 360 358 9 15 10 18 26 32 31 27 26 36 53 84 92 96 96 117 132 133 143 147 147 149 153 155 157 159 160 160 159 160 166 166 161 158
5 10 8 359 359 357 358 359 2 2 3 13 10 13 20 27 33 33 34 41 51 79 90 105 116 124 131 134 140 144 145 149 153 154 155 156 158 158 160 163 159 159 159 158
358 11 7 7 5 360 2 9 4 0 5 9 9 12 19 22 31 36 38 43 48 61 87 99 116 129 134 137 140 144 148 153 157 158 157 155 157 158 159 158 159 158 156 157
Wind_Speed_850mb
45 49 49 51 52 47 46 44 39 40 49 39 48 45 39 50 53 40 31 38 42 41 45 45 47 49 51 50 50 51 57 59 57 59 62 67 71 66 59 64 55 63 66 69
48 47 49 49 52 46 49 48 47 52 56 49 66 65 54 55 49 34 37 40 40 46 52 57 55 54 57 58 61 62 63 69 70 64 64 69 73 71 64 63 58 64 71 74
34 38 33 29 42 43 41 41 42 43 47 45 38 42 40 16 23 43 34 47 54 55 57 60 59 57 57 62 66 68 74 78 72 66 68 69 68 70 72 65 61 71 74 75
24 29 27 29 24 22 29 31 32 27 33 31 22 37 24 28 35 47 48 50 57 55 58 60 65 67 65 68 71 74 81 80 75 71 73 72 69 72 72 65 67 74 79 79
11 18 35 48 23 14 17 25 31 31 16 19 29 33 40 38 44 47 48 56 58 66 71 71 73 78 73 75 78 81 86 84 88 75 70 73 69 67 69 64 72 80 80 80
13 12 10 17 12 15 25 28 29 36 32 36 46 31 33 60 67 70 67 68 67 73 74 76 82 74 71 78 77 83 83 75 79 73 73 71 65 63 63 72 74 79 83 80
22 17 19 21 16 22 21 19 46 46 52 53 33 38 63 67 70 73 76 77 73 72 76 78 76 75 72 72 81 82 79 85 80 75 69 67 63 69 65 70 75 81 81 77
10 10 12 20 30 18 28 55 56 57 48 54 59 67 71 71 75 80 82 80 78 81 81 77 67 60 69 79 79 75 68 72 70 68 66 64 71 76 74 63 84 80 76 72
11 15 43 38 38 53 52 55 56 53 60 62 67 74 77 81 86 90 91 83 82 83 85 82 73 71 77 72 70 66 69 71 80 81 78 91 76 75 73 77 78 74 79 83
22 12 31 42 62 36 52 56 58 58 66 72 76 78 86 81 89 90 86 82 76 76 68 67 66 58 65 70 67 64 74 77 78 80 63 65 88 77 75 78 89 79 85 77
31 32 61 20 54 61 63 72 75 66 72 74 79 79 73 83 73 71 76 70 64 62 61 58 58 56 56 60 56 62 67 73 71 103 126 99 91 77 88 87 87 72 68 79
10 50 42 49 68 84 80 72 77 78 81 76 75 79 81 71 64 66 64 59 58 55 56 60 53 51 52 52 54 60 66 60 66 51 57 100 91 82 77 69 65 64 71 75
16 49 68 73 61 65 73 84 81 72 72 77 61 60 55 59 60 62 63 63 63 59 59 57 54 45 42 41 43 45 48 50 39 16 46 66 74 78 75 66 70 64 72 59
42 42 47 56 70 75 73 71 74 71 51 55 55 50 48 54 57 57 61 62 62 57 54 51 48 44 37 33 36 35 40 31 8 16 35 58 65 73 78 84 75 63 54 51
37 55 58 67 66 77 71 80 66 65 65 63 52 50 48 51 57 61 59 57 55 60 54 44 42 39 30 28 31 33 26 18 21 46 52 69 76 67 69 66 70 73 57 51
60 57 54 59 71 73 83 76 67 68 66 60 57 51 47 48 51 56 52 46 48 48 42 39 34 24 22 20 28 25 20 15 55 57 54 68 65 63 64 57 58 60 64 61
50 53 62 64 67 68 80 71 65 64 64 57 54 52 48 49 49 46 49 41 37 34 28 30 33 29 27 17 23 22 20 38 52 57 53 67 63 59 55 58 52 45 63 56
42 55 56 62 65 69 87 74 67 65 58 56 50 48 45 45 47 46 45 33 23 25 26 33 41 42 27 25 44 32 31 39 53 54 57 59 55 51 55 56 50 53 53 57
42 53 55 59 56 69 75 73 69 68 58 52 50 48 41 42 42 40 37 29 24 37 39 47 51 53 60 68 57 39 44 39 42 47 49 53 59 54 56 61 51 55 51 44
40 46 49 56 55 71 72 73 72 72 68 58 59 59 51 47 42 39 34 33 31 33 21 18 34 38 50 69 54 51 53 49 50 47 51 57 52 55 58 53 60 57 51 51
38 42 46 52 56 57 74 76 78 75 83 70 68 61 54 55 42 38 42 39 33 29 40 45 40 52 48 54 59 53 51 49 51 53 52 56 61 64 58 53 61 63 57 48
37 41 46 51 56 57 62 66 82 74 78 80 76 66 66 66 55 34 36 41 45 42 40 39 46 53 52 56 53 52 52 53 50 58 57 65 70 70 62 70 73 65 52 41
36 38 41 49 51 54 57 63 69 81 68 86 80 75 74 68 66 62 56 48 43 38 33 34 37 44 40 52 52 46 47 53 58 60 60 62 63 62 66 75 68 59 49 45
40 39 37 42 45 51 62 67 61 81 76 80 91 77 71 76 70 59 43 36 32 33 34 31 30 48 58 55 48 56 55 53 55 53 54 58 62 63 68 70 67 58 48 49
42 40 34 42 44 46 53 60 56 69 81 76 86 85 72 68 68 60 47 36 30 33 33 26 24 20 36 43 50 53 49 50 52 55 60 61 63 67 72 65 61 56 50 50
45 49 38 35 37 42 52 53 59 63 76 80 73 84 78 69 65 61 53 45 34 33 36 32 31 35 39 46 45 44 42 44 49 54 60 62 64 72 66 63 58 54 56 54
38 47 47 45 38 41 49 54 55 61 61 74 64 70 74 68 63 61 60 57 48 34 39 38 34 36 42 43 44 44 46 47 49 53 60 67 67 64 58 56 56 57 57 53
Wind_Direction_850mb
276 273 273 270 265 253 241 259 261 266 280 266 269 279 283 284 280 275 276 273 267 265 273 279 281 282 278 279 283 285 284 288 281 276 272 272 270 265 266 266 253 249 234 231
279 281 279 274 270 277 277 276 271 263 255 265 267 271 279 296 270 265 262 268 276 285 287 286 281 277 276 279 284 286 284 285 284 275 269 266 264 265 265 265 250 243 231 227
279 285 284 280 260 264 273 270 265 255 260 264 273 269 275 299 281 282 296 291 284 283 283 283 284 281 276 278 281 281 282 287 281 272 270 262 257 259 262 259 246 237 228 222
279 299 278 273 304 286 283 289 277 260 294 288 323 332 336 311 294 296 293 294 297 296 291 290 285 282 280 279 280 281 284 282 275 274 270 262 254 252 255 255 241 228 222 216
250 250 277 294 315 348 329 297 299 299 333 298 322 306 275 276 281 295 296 295 297 290 284 284 283 282 281 280 280 281 283 278 275 278 260 261 253 251 248 249 231 221 215 205
231 262 277 5 310 344 315 277 12 342 329 317 314 297 293 314 311 301 296 293 291 287 285 284 278 281 282 282 282 281 280 276 276 267 266 263 253 256 248 240 224 217 205 197
232 246 274 7 337 328 274 332 326 321 313 318 312 297 301 298 293 288 284 284 289 285 280 279 284 285 281 281 283 282 280 282 280 271 267 265 256 257 242 226 220 206 196 189
250 243 268 14 337 329 318 308 311 305 309 298 294 294 292 292 293 293 292 291 289 286 285 286 285 288 287 286 284 282 277 272 270 269 271 265 269 247 230 230 208 192 186 183
290 292 306 331 321 317 306 299 300 301 298 293 292 298 301 301 300 297 296 291 290 288 288 287 286 286 285 281 282 278 277 274 272 272 272 268 248 228 240 198 191 179 169 171
310 302 324 318 312 314 311 302 297 296 293 302 304 299 299 300 300 295 291 289 288 286 284 286 284 278 278 280 281 278 280 282 279 283 259 230 224 238 201 182 175 168 174 167
296 297 336 312 314 306 309 311 300 300 301 304 302 300 298 301 290 291 288 285 285 284 281 280 280 279 278 278 280 281 279 279 276 258 231 251 234 182 170 177 172 165 170 168
280 303 299 291 305 306 307 308 304 307 307 303 305 300 297 291 288 291 292 289 286 283 282 281 280 280 281 283 274 280 273 289 314 113 151 146 153 154 161 161 164 169 169 161
283 291 289 294 306 314 318 318 316 312 307 307 302 299 294 292 291 291 292 290 287 285 283 282 280 278 278 273 278 280 297 305 336 103 132 142 146 147 147 143 155 155 152 153
311 314 313 313 315 324 323 319 317 318 312 310 306 304 298 297 295 294 291 290 289 286 281 279 278 276 275 268 270 279 294 302 311 164 146 141 145 143 139 136 136 140 148 157
320 317 304 310 332 327 324 327 323 327 326 325 320 314 309 303 299 297 298 297 292 287 283 277 274 271 267 267 265 270 269 262 159 150 143 142 135 131 130 134 145 149 151 159
313 313 320 340 331 331 337 335 331 329 330 326 324 319 312 304 303 300 300 296 291 287 285 281 274 272 284 263 254 244 228 196 157 144 141 140 134 133 133 132 139 146 154 157
321 327 332 344 345 338 339 338 336 334 330 329 328 327 321 314 309 307 309 305 293 287 280 273 276 284 278 250 168 180 176 145 153 158 144 140 140 140 139 140 142 145 154 156
324 324 342 349 344 345 341 340 342 341 340 338 336 334 329 326 318 316 316 313 302 292 284 274 271 269 244 190 172 172 167 148 158 148 145 141 145 144 140 139 139 141 145 143
335 342 345 351 351 353 348 347 351 351 348 352 351 345 343 340 335 333 329 324 311 293 293 282 273 257 234 215 204 197 171 170 161 150 150 149 142 138 136 136 138 137 141 144
342 346 346 351 355 354 353 357 359 360 6 8 8 2 -0 5 355 341 347 338 319 305 312 52 115 126 149 156 166 167 168 170 153 148 149 145 139 139 135 138 141 142 141 149
341 342 346 351 355 352 359 3 1 359 8 13 16 9 7 14 1 355 357 4 7 19 72 96 114 137 144 153 154 150 152 153 147 146 141 142 142 141 139 144 142 148 148 156
341 342 339 348 358 354 354 354 5 4 8 17 18 15 19 19 17 22 23 5 20 53 81 108 120 135 151 149 146 143 143 141 140 155 154 152 150 151 153 152 156 157 156 151
338 345 346 346 357 357 359 0 358 8 1 16 19 19 22 21 19 17 16 30 42 83 95 103 115 129 138 133 130 131 141 141 141 145 147 153 162 167 163 162 162 162 163 158
348 350 350 353 358 359 2 359 357 6 9 10 17 23 26 21 27 21 27 31 51 83 93 89 112 124 132 128 131 132 138 145 152 160 165 164 162 163 164 166 162 162 162 160
358 354 356 357 2 359 360 0 360 358 9 15 10 18 26 32 31 27 26 36 53 84 92 96 96 117 132 133 143 147 147 149 153 155 157 159 160 160 159 160 166 166 161 158
5 10 8 359 359 357 358 359 2 2 3 13 10 13 20 27 33 33 34 41 51 79 90 105 116 124 131 134 140 144 145 149 153 154 155 156 158 158 160 163 159 159 159 158
358 11 7 7 5 360 2 9 4 0 5 9 9 12 19 22 31 36 38 43 48 61 87 99 116 129 134 137 140 144 148 153 157 158 157 155 157 158 159 158 159 158 156 157